Location: Gisborne
(38.6530°S, 178.0040°E)
Time: 23:05:57
(UTC+12:00)

ISS - Visible Passes

Search period start: 14 May 2021 00:00
Search period end: 24 May 2021 00:00
Orbit: 417 x 422 km, 51.6° (Epoch: 14 May)

Date Brightness Start Highest point End Pass type
(mag) Time Alt. Az. Time Alt. Az. Time Alt. Az.
19 May -0.8 06:26:41 10° N 06:29:20 21° NE 06:32:01 10° E visible
20 May -0.4 05:40:37 10° NNE 05:42:04 12° NE 05:43:31 10° ENE visible
21 May -3.3 06:27:36 10° NW 06:31:00 69° NE 06:34:26 10° SE visible
22 May -2.2 05:40:25 10° NNW 05:43:36 37° NE 05:46:48 10° ESE visible
23 May -1.4 04:55:40 20° NE 04:56:15 21° NE 04:58:56 10° E visible
23 May -3.2 06:29:37 10° WNW 06:32:53 40° SSW 06:36:10 10° SE visible
